User: anonymous   Login
Location: Myra
(43.4160°N, 88.0960°W)
Time: 04:42:18
(UTC-05:00)
Language:

SL-8 R/B - Orbit

View from above orbital plane
View from above orbital plane
View from above satellite
View from above satellite

Ground track
Ground track

The orbit data is extracted from the following two-line orbital elements,

1 33066U 08031G   16207.96897502 +.00000105 +00000-0 +50342-4 0  9996
2 33066 048.4423 196.1776 0007677 182.7626 205.0858 14.69451769434732
Epoch (UTC): 25 July 2016 23:15:19
Eccentricity: 0.0007677
inclination: 48.4423°
perigee height: 657 km
apogee height: 668 km
right ascension of ascending node: 196.1776°
argument of perigee: 182.7626°
revolutions per day: 14.69451769
mean anomaly at epoch: 205.0858°
orbit number at epoch: 43473

The dashed part of the orbit path shows where the satellite is in the earth's shadow,  

DLR